Content
SEND FEEDBACK

Daily
Averages
Monthly
Summary
United States of America

NEW YORK - CENTRAL PARK, NEW YORK


Home > North America > United States > New York
Elevation: 14 feet     Latitude: 40 47N     Longitude: 073 58W

WEATHER
 
SELECT A DAY
Number of Records: 151,258;   Date Range: 11/1/95 - 10/22/14
 
SHARE

PRINT THIS DATA

[ ← Previous Day ]
WEATHER ALMANAC - MARCH 25, 2013
[ Next Day → ]
[ °C ]   °F
Weather ElementAverageHighLow
Temperature37.7 °F39.9 °F (12:51 pm)36 °F (2:51 pm)
Dewpoint29.8 °F34 °F (3:28 pm)23 °F (2:51 am)
Humidity74.5 %89 % (2:51 pm)53 % (2:51 am)
Barometer29.55 in29.70 in (1:51 am)29.47 in (3:51 pm)
Wind Speed8.4 mph23 mph (9:51 am)
Wind Gust32.2 mph (12:51 pm)
Weather ElementAverage
Visibility7.9 mi
Wind DirectionENE (60.6 °)

Weather ElementTotal
Precipitation0.27 in
Heating Degree Days27.1 (Base 65)
Averaged from 31 records on March 25, 2013
WEATHER CONDITIONS BREAKOUT
WIND DIRECTION BREAKOUT
WEATHER BY HOUR - MARCH 25, 2013
[ °C ]   °F
Local TimeTemperatureDewpointHumidityBarometerVisibilityWind DirectionWind SpeedGust SpeedPrecipitationEventsConditions
1:51 AM39.0 °F25.0 °F57 %29.70 in10.0 miVariable6.9 mphClear
2:51 AM39.0 °F23.0 °F53 %29.67 in10.0 miSSE (160°)5.8 mphClear
3:51 AM39.0 °F24.1 °F55 %29.63 in10.0 miENE (70°)4.6 mphScattered Clouds
4:51 AM37.9 °F26.1 °F62 %29.62 in10.0 miENE (70°)9.2 mphOvercast
5:51 AM37.9 °F28.0 °F68 %29.62 in10.0 miEast (80°)11.5 mph19.6 mphOvercast
6:51 AM37.0 °F28.0 °F70 %29.61 in10.0 miEast (80°)11.5 mph18.4 mphOvercast
7:51 AM37.9 °F26.1 °F62 %29.60 in10.0 miENE (70°)10.4 mphOvercast
8:51 AM37.9 °F25.0 °F60 %29.62 in10.0 miENE (70°)9.2 mphOvercast
9:51 AM39.0 °F24.1 °F55 %29.60 in10.0 miENE (60°)23.0 mph29.9 mphOvercast
10:51 AM39.0 °F25.0 °F57 %29.58 in10.0 miENE (70°)12.7 mph24.2 mphOvercast
11:04 AM37.9 °F26.1 °F62 %29.60 in9.0 miENE (70°)10.4 mph23.0 mphOvercast
11:51 AM37.9 °F28.0 °F68 %29.56 in9.0 miEast (80°)12.7 mph19.6 mphOvercast
12:49 PM39.2 °F28.4 °F65 %29.55 in10.0 miEast (80°)16.1 mph29.9 mphOvercast
12:51 PM39.9 °F27.0 °F60 %29.52 in10.0 miENE (70°)20.7 mph32.2 mphOvercast
1:51 PM37.0 °F30.0 °F76 %29.50 in7.0 miENE (70°)17.3 mph29.9 mph0.00 inSnowLight Snow
2:51 PM36.0 °F33.1 °F89 %29.48 in5.0 miVariable5.8 mph0.02 inOvercast
3:12 PM36.0 °F33.1 °F89 %29.50 in4.0 miEast (80°)9.2 mph19.6 mph0.01 inOvercast
3:28 PM37.0 °F34.0 °F89 %29.49 in4.0 miNE (50°)6.9 mph0.01 inOvercast
3:51 PM37.0 °F34.0 °F89 %29.47 in7.0 miVariable4.6 mph0.02 inOvercast
4:34 PM37.0 °F33.1 °F86 %29.49 in7.0 miENE (70°)4.6 mph0.02 inOvercast
4:49 PM37.4 °F33.8 °F87 %29.49 in5.0 miNE (40°)5.8 mph0.02 inOvercast
4:51 PM37.0 °F33.1 °F86 %29.47 in5.0 miNE (40°)8.1 mph0.02 inOvercast
5:51 PM36.0 °F33.1 °F89 %29.47 in6.0 miNE (50°)8.1 mph0.04 inOvercast
6:49 PM37.4 °F33.8 °F87 %29.52 in6.0 miCalm0.02 inOvercast
6:51 PM37.0 °F34.0 °F89 %29.50 in6.0 miCalm0.02 inOvercast
7:43 PM37.0 °F34.0 °F89 %29.54 in7.0 miCalm0.02 inOvercast
7:51 PM37.0 °F34.0 °F89 %29.52 in8.0 miCalm0.02 inOvercast
8:51 PM37.0 °F34.0 °F89 %29.55 in5.0 miNE (40°)6.9 mph0.02 inRainLight Rain
8:59 PM37.0 °F34.0 °F89 %29.57 in6.0 miCalm0.00 inOvercast
9:51 PM37.9 °F32.0 °F79 %29.57 in10.0 miENE (60°)10.4 mph0.01 inOvercast
11:51 PM39.0 °F28.0 °F65 %29.58 in10.0 miNorth (350°)8.1 mphMostly Cloudy
Hourly data recorded from KNYC, located miles away from New York - Central Park, New York







STORIES FROM OUR PARTNERS